| time (UTC) | temp F | wind direction | speed MPH | gust MPH | rain 1hr in | rain 24hr in | rain mn in | humidity % | barometer mb |
| 20260904040112 | 80 | 209 | 0.0 | 0.0 | 0.00 | 0.00 | 0.00 | 80 | 1012.4 |
| 20260904035607 | 80 | 213 | 0.0 | 0.0 | 0.00 | 0.00 | 0.00 | 79 | 1012.2 |
| 20260904035106 | 81 | 209 | 0.0 | 1.0 | 0.00 | 0.00 | 0.00 | 79 | 1012.6 |
| 20260904034601 | 81 | 198 | 0.0 | 1.0 | 0.00 | 0.00 | 0.00 | 78 | 1012.3 |
| 20260904034057 | 80 | 169 | 2.0 | 2.0 | 0.00 | 0.00 | 0.00 | 80 | 1012.5 |
| 20260904033553 | 80 | 186 | 0.0 | 1.0 | 0.00 | 0.00 | 0.00 | 81 | 1012.3 |
| 20260904033050 | 80 | 195 | 0.0 | 0.0 | 0.00 | 0.00 | 0.00 | 82 | 1012.3 |
| 20260904032545 | 80 | 195 | 0.0 | 0.0 | 0.00 | 0.00 | 0.00 | 83 | 1012.2 |
| 20260904032044 | 81 | 195 | 0.0 | 0.0 | 0.00 | 0.00 | 0.00 | 82 | 1012.5 |
| 20260904031543 | 81 | 195 | 0.0 | 0.0 | 0.00 | 0.00 | 0.00 | 78 | 1012.3 |
| 20260904031040 | 82 | 194 | 0.0 | 0.0 | 0.00 | 0.00 | 0.00 | 78 | 1012.4 |
| 20260904030536 | 82 | 194 | 0.0 | 0.0 | 0.00 | 0.00 | 0.00 | 76 | 1012.1 |
| 20260904030031 | 82 | 193 | 0.0 | 0.0 | 0.00 | 0.00 | 0.00 | 76 | 1012.3 |
| 20260904025526 | 82 | 186 | 0.0 | 0.0 | 0.00 | 0.00 | 0.00 | 77 | 1012.2 |
| 20260904025026 | 82 | 196 | 0.0 | 0.0 | 0.00 | 0.00 | 0.00 | 78 | 1012.4 |
| 20260904024522 | 82 | 199 | 0.0 | 0.0 | 0.00 | 0.00 | 0.00 | 76 | 1012.2 |
| 20260904024017 | 82 | 209 | 0.0 | 0.0 | 0.00 | 0.00 | 0.00 | 77 | 1012.2 |
| 20260904023514 | 82 | 211 | 0.0 | 0.0 | 0.00 | 0.00 | 0.00 | 79 | 1012.0 |
| 20260904023009 | 83 | 206 | 0.0 | 0.0 | 0.00 | 0.00 | 0.00 | 77 | 1012.0 |
| 20260904022504 | 83 | 210 | 0.0 | 0.0 | 0.00 | 0.00 | 0.00 | 76 | 1012.1 |
| 20260904022001 | 83 | 199 | 0.0 | 0.0 | 0.00 | 0.00 | 0.00 | 75 | 1012.4 |
| 20260904021457 | 84 | 206 | 0.0 | 0.0 | 0.00 | 0.00 | 0.00 | 76 | 1012.2 |
| 20260904020956 | 84 | 202 | 0.0 | 0.0 | 0.00 | 0.00 | 0.00 | 74 | 1012.0 |
| 20260904020452 | 84 | 197 | 1.0 | 1.0 | 0.00 | 0.00 | 0.00 | 74 | 1012.0 |
| 20260904015950 | 84 | 207 | 1.0 | 1.0 | 0.00 | 0.00 | 0.00 | 74 | 1011.9 |
| 20260904015446 | 85 | 204 | 1.0 | 1.0 | 0.00 | 0.00 | 0.00 | 73 | 1011.9 |
| 20260904014944 | 85 | 200 | 2.0 | 3.0 | 0.00 | 0.00 | 0.00 | 73 | 1012.0 |
| 20260904014439 | 85 | 208 | 1.0 | 1.0 | 0.00 | 0.00 | 0.00 | 74 | 1011.7 |
| 20260904013935 | 84 | 196 | 1.0 | 2.0 | 0.00 | 0.00 | 0.00 | 74 | 1011.7 |
| 20260904013431 | 84 | 215 | 0.0 | 0.0 | 0.00 | 0.00 | 0.00 | 75 | 1011.9 |
| 20260904012927 | 85 | 214 | 0.0 | 0.0 | 0.00 | 0.00 | 0.00 | 74 | 1011.5 |
| 20260904012426 | 85 | 210 | 1.0 | 1.0 | 0.00 | 0.00 | 0.00 | 73 | 1011.5 |
| 20260904011921 | 86 | 230 | 0.0 | 0.0 | 0.00 | 0.00 | 0.00 | 72 | 1011.6 |
| 20260904011416 | 86 | 202 | 1.0 | 1.0 | 0.00 | 0.00 | 0.00 | 72 | 1011.5 |
| 20260904010911 | 86 | 202 | 2.0 | 2.0 | 0.00 | 0.00 | 0.00 | 72 | 1011.5 |
| 20260904010408 | 86 | 195 | 1.0 | 1.0 | 0.00 | 0.00 | 0.00 | 73 | 1011.3 |
| 20260904005902 | 87 | 190 | 3.0 | 3.0 | 0.00 | 0.00 | 0.00 | 72 | 1011.5 |
| 20260904005358 | 87 | 195 | 3.0 | 3.0 | 0.00 | 0.00 | 0.00 | 71 | 1011.3 |
| 20260904004853 | 87 | 190 | 1.0 | 2.0 | 0.00 | 0.00 | 0.00 | 73 | 1011.3 |
| 20260904004350 | 87 | 187 | 0.0 | 0.0 | 0.00 | 0.00 | 0.00 | 72 | 1011.5 |
| 20260904003849 | 87 | 183 | 0.0 | 1.0 | 0.00 | 0.00 | 0.00 | 71 | 1011.3 |
| 20260904003345 | 88 | 182 | 0.0 | 0.0 | 0.00 | 0.00 | 0.00 | 70 | 1011.3 |
| 20260904002840 | 88 | 181 | 0.0 | 1.0 | 0.00 | 0.00 | 0.00 | 69 | 1011.2 |
| 20260904002337 | 88 | 210 | 0.0 | 1.0 | 0.00 | 0.00 | 0.00 | 69 | 1011.3 |
| 20260904001836 | 89 | 182 | 0.0 | 1.0 | 0.00 | 0.00 | 0.00 | 69 | 1011.6 |
| 20260904001331 | 89 | 193 | 1.0 | 2.0 | 0.00 | 0.00 | 0.00 | 68 | 1011.3 |
| 20260904000826 | 90 | 185 | 1.0 | 1.0 | 0.00 | 0.00 | 0.00 | 68 | 1011.5 |
| 20260904000325 | 90 | 187 | 1.0 | 1.0 | 0.00 | 0.00 | 0.00 | 68 | 1011.5 |
| 20260903235820 | 91 | 195 | 0.0 | 0.0 | 0.00 | 0.00 | 0.00 | 66 | 1011.5 |
| 20260903235317 | 91 | 199 | 1.0 | 2.0 | 0.00 | 0.00 | 0.00 | 65 | 1011.8 |
| 20260903234815 | 91 | 200 | 1.0 | 1.0 | 0.00 | 0.00 | 0.00 | 64 | 1011.5 |
| 20260903234312 | 91 | 208 | 1.0 | 1.0 | 0.00 | 0.00 | 0.00 | 64 | 1011.6 |
| 20260903233808 | 92 | 197 | 1.0 | 2.0 | 0.00 | 0.00 | 0.00 | 63 | 1011.5 |
| 20260903233304 | 92 | 205 | 1.0 | 1.0 | 0.00 | 0.00 | 0.00 | 63 | 1011.3 |
| 20260903232803 | 93 | 193 | 2.0 | 2.0 | 0.00 | 0.00 | 0.00 | 63 | 1011.2 |
| 20260903232259 | 93 | 190 | 1.0 | 2.0 | 0.00 | 0.00 | 0.00 | 62 | 1011.6 |
| 20260903231757 | 93 | 180 | 2.0 | 2.0 | 0.00 | 0.00 | 0.00 | 62 | 1011.6 |
| 20260903231253 | 94 | 190 | 0.0 | 0.0 | 0.00 | 0.00 | 0.00 | 62 | 1011.7 |
| 20260903230748 | 94 | 200 | 0.0 | 0.0 | 0.00 | 0.00 | 0.00 | 61 | 1011.6 |
| 20260903230248 | 94 | 180 | 2.0 | 3.0 | 0.00 | 0.00 | 0.00 | 60 | 1011.8 |
| 20260903225744 | 94 | 176 | 3.0 | 3.0 | 0.00 | 0.00 | 0.00 | 58 | 1011.5 |
| 20260903225241 | 95 | 204 | 1.0 | 2.0 | 0.00 | 0.00 | 0.00 | 58 | 1011.9 |
| 20260903224737 | 95 | 209 | 3.0 | 3.0 | 0.00 | 0.00 | 0.00 | 57 | 1011.8 |
| 20260903224233 | 95 | 205 | 2.0 | 2.0 | 0.00 | 0.00 | 0.00 | 59 | 1011.6 |
| 20260903223728 | 95 | 195 | 2.0 | 2.0 | 0.00 | 0.00 | 0.00 | 58 | 1011.8 |
| 20260903223226 | 96 | 180 | 2.0 | 2.0 | 0.00 | 0.00 | 0.00 | 57 | 1011.8 |
| 20260903222721 | 96 | 208 | 2.0 | 2.0 | 0.00 | 0.00 | 0.00 | 54 | 1011.7 |
| 20260903222220 | 95 | 225 | 2.0 | 2.0 | 0.00 | 0.00 | 0.00 | 59 | 1011.6 |
| 20260903221715 | 95 | 213 | 2.0 | 2.0 | 0.00 | 0.00 | 0.00 | 57 | 1011.7 |
| 20260903221214 | 96 | 204 | 2.0 | 2.0 | 0.00 | 0.00 | 0.00 | 55 | 1011.9 |
| 20260903220712 | 96 | 229 | 2.0 | 2.0 | 0.00 | 0.00 | 0.00 | 54 | 1011.8 |
| 20260903220207 | 98 | 203 | 2.0 | 2.0 | 0.00 | 0.00 | 0.00 | 54 | 1011.8 |
| 20260903215701 | 99 | 212 | 2.0 | 2.0 | 0.00 | 0.00 | 0.00 | 51 | 1011.9 |
| 20260903215156 | 98 | 242 | 1.0 | 1.0 | 0.00 | 0.00 | 0.00 | 50 | 1012.0 |
| 20260903214654 | 98 | 229 | 1.0 | 1.0 | 0.00 | 0.00 | 0.00 | 54 | 1012.0 |
| 20260903214150 | 97 | 210 | 4.0 | 6.0 | 0.00 | 0.00 | 0.00 | 53 | 1012.0 |
| 20260903213645 | 97 | 224 | 2.0 | 3.0 | 0.00 | 0.00 | 0.00 | 55 | 1012.0 |
| 20260903213141 | 98 | 186 | 5.0 | 6.0 | 0.00 | 0.00 | 0.00 | 51 | 1012.2 |
| 20260903212636 | 98 | 257 | 0.0 | 1.0 | 0.00 | 0.00 | 0.00 | 54 | 1012.1 |
| 20260903212131 | 98 | 230 | 0.0 | 1.0 | 0.00 | 0.00 | 0.00 | 51 | 1012.0 |
| 20260903211626 | 98 | 241 | 2.0 | 3.0 | 0.00 | 0.00 | 0.00 | 52 | 1012.0 |
| 20260903211124 | 97 | 200 | 1.0 | 2.0 | 0.00 | 0.00 | 0.00 | 56 | 1012.1 |
| 20260903210618 | 96 | 225 | 1.0 | 1.0 | 0.00 | 0.00 | 0.00 | 55 | 1012.2 |
| 20260903210114 | 97 | 193 | 6.0 | 8.0 | 0.00 | 0.00 | 0.00 | 53 | 1012.3 |
| 20260903205613 | 98 | 199 | 4.0 | 5.0 | 0.00 | 0.00 | 0.00 | 52 | 1012.3 |
| 20260903205107 | 97 | 219 | 2.0 | 3.0 | 0.00 | 0.00 | 0.00 | 51 | 1012.2 |
| 20260903204603 | 96 | 214 | 2.0 | 3.0 | 0.00 | 0.00 | 0.00 | 56 | 1012.4 |
| 20260903204058 | 96 | 206 | 3.0 | 5.0 | 0.00 | 0.00 | 0.00 | 55 | 1012.1 |
| 20260903203553 | 97 | 202 | 3.0 | 3.0 | 0.00 | 0.00 | 0.00 | 56 | 1012.5 |
| 20260903203048 | 97 | 247 | 1.0 | 1.0 | 0.00 | 0.00 | 0.00 | 55 | 1012.2 |
| 20260903202544 | 98 | 203 | 2.0 | 2.0 | 0.00 | 0.00 | 0.00 | 55 | 1012.4 |
| 20260903202039 | 98 | 214 | 1.0 | 1.0 | 0.00 | 0.00 | 0.00 | 53 | 1012.4 |
| 20260903201533 | 97 | 247 | 3.0 | 5.0 | 0.00 | 0.00 | 0.00 | 53 | 1012.5 |
| 20260903201033 | 97 | 252 | 2.0 | 2.0 | 0.00 | 0.00 | 0.00 | 55 | 1012.3 |
| 20260903200528 | 96 | 172 | 4.0 | 5.0 | 0.00 | 0.00 | 0.00 | 55 | 1012.3 |
| 20260903200023 | 97 | 174 | 4.0 | 5.0 | 0.00 | 0.00 | 0.00 | 54 | 1012.4 |
| 20260903195519 | 96 | 187 | 2.0 | 2.0 | 0.00 | 0.00 | 0.00 | 54 | 1012.4 |
| 20260903195015 | 98 | 228 | 1.0 | 2.0 | 0.00 | 0.00 | 0.00 | 55 | 1012.4 |
| 20260903194509 | 97 | 196 | 5.0 | 6.0 | 0.00 | 0.00 | 0.00 | 54 | 1012.5 |
| 20260903194005 | 96 | 225 | 0.0 | 1.0 | 0.00 | 0.00 | 0.00 | 56 | 1012.4 |
| 20260903193501 | 97 | 194 | 5.0 | 7.0 | 0.00 | 0.00 | 0.00 | 56 | 1012.5 |
| 20260903192955 | 96 | 234 | 1.0 | 2.0 | 0.00 | 0.00 | 0.00 | 57 | 1012.5 |
| 20260903192453 | 96 | 181 | 4.0 | 6.0 | 0.00 | 0.00 | 0.00 | 57 | 1012.4 |
| 20260903191947 | 96 | 225 | 2.0 | 3.0 | 0.00 | 0.00 | 0.00 | 55 | 1012.6 |
| 20260903191443 | 97 | 240 | 1.0 | 1.0 | 0.00 | 0.00 | 0.00 | 55 | 1012.7 |
| 20260903190942 | 96 | 222 | 3.0 | 3.0 | 0.00 | 0.00 | 0.00 | 58 | 1012.5 |
| 20260903190437 | 95 | 179 | 3.0 | 3.0 | 0.00 | 0.00 | 0.00 | 57 | 1012.8 |
| 20260903185937 | 97 | 276 | 5.0 | 7.0 | 0.00 | 0.00 | 0.00 | 56 | 1012.6 |
| 20260903185433 | 96 | 242 | 1.0 | 2.0 | 0.00 | 0.00 | 0.00 | 54 | 1012.7 |
| 20260903184927 | 95 | 226 | 2.0 | 2.0 | 0.00 | 0.00 | 0.00 | 54 | 1012.8 |
| 20260903184424 | 95 | 239 | 1.0 | 2.0 | 0.00 | 0.00 | 0.00 | 61 | 1012.9 |
| 20260903183924 | 95 | 233 | 2.0 | 2.0 | 0.00 | 0.00 | 0.00 | 58 | 1012.7 |
| 20260903183419 | 96 | 257 | 3.0 | 3.0 | 0.00 | 0.00 | 0.00 | 58 | 1012.9 |
| 20260903182918 | 95 | 206 | 2.0 | 2.0 | 0.00 | 0.00 | 0.00 | 57 | 1013.1 |
| 20260903182417 | 95 | 252 | 2.0 | 2.0 | 0.00 | 0.00 | 0.00 | 57 | 1013.1 |
| 20260903181912 | 95 | 197 | 2.0 | 2.0 | 0.00 | 0.00 | 0.00 | 58 | 1012.9 |
| 20260903181407 | 95 | 223 | 4.0 | 6.0 | 0.00 | 0.00 | 0.00 | 57 | 1013.2 |
| 20260903180907 | 95 | 229 | 3.0 | 3.0 | 0.00 | 0.00 | 0.00 | 56 | 1013.3 |
| 20260903180407 | 95 | 274 | 3.0 | 3.0 | 0.00 | 0.00 | 0.00 | 58 | 1013.4 |
| 20260903175901 | 94 | 235 | 0.0 | 1.0 | 0.00 | 0.00 | 0.00 | 59 | 1013.3 |
| 20260903175400 | 94 | 242 | 4.0 | 5.0 | 0.00 | 0.00 | 0.00 | 57 | 1013.3 |
| 20260903174855 | 93 | 199 | 3.0 | 3.0 | 0.00 | 0.00 | 0.00 | 60 | 1013.5 |
| 20260903174350 | 94 | 228 | 2.0 | 2.0 | 0.00 | 0.00 | 0.00 | 58 | 1013.5 |
| 20260903173845 | 95 | 262 | 2.0 | 2.0 | 0.00 | 0.00 | 0.00 | 60 | 1013.6 |
| 20260903173340 | 94 | 220 | 2.0 | 2.0 | 0.00 | 0.00 | 0.00 | 60 | 1013.6 |
| 20260903172836 | 93 | 223 | 2.0 | 2.0 | 0.00 | 0.00 | 0.00 | 60 | 1013.7 |
| 20260903172330 | 92 | 264 | 3.0 | 5.0 | 0.00 | 0.00 | 0.00 | 60 | 1013.7 |
| 20260903171826 | 93 | 233 | 4.0 | 5.0 | 0.00 | 0.00 | 0.00 | 62 | 1013.8 |
| 20260903171321 | 92 | 218 | 2.0 | 3.0 | 0.00 | 0.00 | 0.00 | 62 | 1013.7 |
| 20260903170820 | 92 | 235 | 2.0 | 3.0 | 0.00 | 0.00 | 0.00 | 62 | 1013.8 |
| 20260903170316 | 92 | 261 | 3.0 | 5.0 | 0.00 | 0.00 | 0.00 | 62 | 1013.8 |
| 20260903165814 | 91 | 215 | 2.0 | 2.0 | 0.00 | 0.00 | 0.00 | 63 | 1013.9 |
| 20260903165308 | 92 | 210 | 2.0 | 3.0 | 0.00 | 0.00 | 0.00 | 62 | 1013.9 |
| 20260903164803 | 92 | 231 | 3.0 | 3.0 | 0.00 | 0.00 | 0.00 | 64 | 1013.8 |
| 20260903164259 | 92 | 239 | 3.0 | 3.0 | 0.00 | 0.00 | 0.00 | 65 | 1013.9 |
| 20260903163757 | 90 | 222 | 1.0 | 2.0 | 0.00 | 0.00 | 0.00 | 65 | 1013.9 |
| 20260903163255 | 90 | 206 | 1.0 | 2.0 | 0.00 | 0.00 | 0.00 | 65 | 1014.0 |
| 20260903162752 | 92 | 244 | 2.0 | 2.0 | 0.00 | 0.00 | 0.00 | 61 | 1014.1 |
| 20260903162246 | 91 | 227 | 1.0 | 2.0 | 0.00 | 0.00 | 0.00 | 65 | 1014.2 |
| 20260903161742 | 90 | 270 | 1.0 | 2.0 | 0.00 | 0.00 | 0.00 | 64 | 1013.8 |
| 20260903161237 | 90 | 238 | 3.0 | 5.0 | 0.00 | 0.00 | 0.00 | 64 | 1014.0 |
| 20260903160733 | 91 | 256 | 4.0 | 5.0 | 0.00 | 0.00 | 0.00 | 64 | 1014.2 |
| 20260903160231 | 91 | 203 | 1.0 | 1.0 | 0.00 | 0.00 | 0.00 | 64 | 1014.1 |
| 20260903155730 | 89 | 238 | 3.0 | 5.0 | 0.00 | 0.00 | 0.00 | 66 | 1014.1 |
| 20260903155225 | 88 | 278 | 5.0 | 6.0 | 0.00 | 0.00 | 0.00 | 66 | 1014.3 |
| 20260903154721 | 88 | 257 | 3.0 | 5.0 | 0.00 | 0.00 | 0.00 | 67 | 1014.0 |
| 20260903154217 | 88 | 250 | 3.0 | 3.0 | 0.00 | 0.00 | 0.00 | 68 | 1014.1 |
| 20260903153712 | 88 | 229 | 1.0 | 1.0 | 0.00 | 0.00 | 0.00 | 70 | 1014.2 |
| 20260903153208 | 87 | 234 | 1.0 | 1.0 | 0.00 | 0.00 | 0.00 | 69 | 1014.1 |
| 20260903152704 | 87 | 211 | 1.0 | 2.0 | 0.00 | 0.00 | 0.00 | 69 | 1014.3 |
| 20260903152200 | 87 | 170 | 1.0 | 1.0 | 0.00 | 0.00 | 0.00 | 69 | 1014.1 |
| 20260903151700 | 88 | 230 | 3.0 | 5.0 | 0.00 | 0.00 | 0.00 | 68 | 1014.2 |
| 20260903151155 | 87 | 231 | 2.0 | 2.0 | 0.00 | 0.00 | 0.00 | 69 | 1014.3 |
| 20260903150655 | 87 | 233 | 2.0 | 2.0 | 0.00 | 0.00 | 0.00 | 70 | 1014.3 |
| 20260903150150 | 87 | 255 | 3.0 | 3.0 | 0.00 | 0.00 | 0.00 | 69 | 1014.0 |
| 20260903145650 | 87 | 232 | 2.0 | 3.0 | 0.00 | 0.00 | 0.00 | 69 | 1014.2 |
| 20260903145145 | 86 | 218 | 3.0 | 5.0 | 0.00 | 0.00 | 0.00 | 70 | 1014.0 |
| 20260903144643 | 87 | 180 | 5.0 | 6.0 | 0.00 | 0.00 | 0.00 | 69 | 1014.1 |
| 20260903144140 | 86 | 220 | 2.0 | 2.0 | 0.00 | 0.00 | 0.00 | 70 | 1013.8 |
| 20260903143636 | 86 | 226 | 2.0 | 2.0 | 0.00 | 0.00 | 0.00 | 71 | 1013.9 |
| 20260903143131 | 86 | 203 | 1.0 | 1.0 | 0.00 | 0.00 | 0.00 | 73 | 1014.0 |
| 20260903142627 | 85 | 225 | 2.0 | 2.0 | 0.00 | 0.00 | 0.00 | 73 | 1013.9 |
| 20260903142123 | 84 | 191 | 3.0 | 5.0 | 0.00 | 0.00 | 0.00 | 73 | 1013.9 |
| 20260903141618 | 84 | 192 | 4.0 | 5.0 | 0.00 | 0.00 | 0.00 | 73 | 1014.0 |
| 20260903141108 | 84 | 210 | 3.0 | 5.0 | 0.00 | 0.00 | 0.00 | 74 | 1014.0 |
| 20260903140604 | 84 | 190 | 1.0 | 2.0 | 0.00 | 0.00 | 0.00 | 75 | 1013.9 |
| 20260903140059 | 83 | 218 | 1.0 | 1.0 | 0.00 | 0.00 | 0.00 | 76 | 1014.1 |
| 20260903135554 | 83 | 213 | 1.0 | 2.0 | 0.00 | 0.00 | 0.00 | 76 | 1013.9 |
| 20260903135049 | 82 | 235 | 1.0 | 2.0 | 0.00 | 0.00 | 0.00 | 77 | 1013.9 |
| 20260903134548 | 82 | 233 | 3.0 | 3.0 | 0.00 | 0.00 | 0.00 | 77 | 1013.8 |
| 20260903134044 | 81 | 237 | 2.0 | 2.0 | 0.00 | 0.00 | 0.00 | 79 | 1014.0 |
| 20260903133541 | 81 | 245 | 2.0 | 3.0 | 0.00 | 0.00 | 0.00 | 78 | 1014.2 |
| 20260903133037 | 81 | 227 | 2.0 | 2.0 | 0.00 | 0.00 | 0.00 | 79 | 1014.1 |
| 20260903132532 | 80 | 220 | 3.0 | 3.0 | 0.00 | 0.00 | 0.00 | 80 | 1014.1 |
| 20260903132027 | 80 | 211 | 2.0 | 3.0 | 0.00 | 0.00 | 0.00 | 80 | 1013.8 |
| 20260903131522 | 80 | 227 | 1.0 | 2.0 | 0.00 | 0.00 | 0.00 | 80 | 1014.0 |
| 20260903131021 | 80 | 229 | 1.0 | 2.0 | 0.00 | 0.00 | 0.00 | 81 | 1013.9 |
| 20260903130515 | 79 | 210 | 1.0 | 2.0 | 0.00 | 0.00 | 0.00 | 81 | 1014.0 |
| 20260903130015 | 79 | 192 | 3.0 | 3.0 | 0.00 | 0.00 | 0.00 | 82 | 1013.8 |
| 20260903125514 | 79 | 214 | 1.0 | 1.0 | 0.00 | 0.00 | 0.00 | 83 | 1014.1 |
| 20260903125009 | 78 | 184 | 1.0 | 1.0 | 0.00 | 0.00 | 0.00 | 83 | 1013.8 |
| 20260903124504 | 78 | 197 | 2.0 | 2.0 | 0.00 | 0.00 | 0.00 | 84 | 1014.0 |
| 20260903124003 | 78 | 210 | 1.0 | 1.0 | 0.00 | 0.00 | 0.00 | 84 | 1013.8 |
| 20260903123502 | 78 | 221 | 2.0 | 2.0 | 0.00 | 0.00 | 0.00 | 84 | 1013.8 |
| 20260903123001 | 77 | 231 | 0.0 | 1.0 | 0.00 | 0.00 | 0.00 | 86 | 1013.6 |
| 20260903122456 | 76 | 206 | 2.0 | 2.0 | 0.00 | 0.00 | 0.00 | 87 | 1013.8 |
| 20260903121955 | 76 | 207 | 2.0 | 2.0 | 0.00 | 0.00 | 0.00 | 88 | 1013.7 |
| 20260903121450 | 75 | 197 | 1.0 | 1.0 | 0.00 | 0.00 | 0.00 | 89 | 1014.0 |
| 20260903120946 | 75 | 195 | 2.0 | 2.0 | 0.00 | 0.00 | 0.00 | 89 | 1013.6 |
| 20260903120445 | 75 | 189 | 0.0 | 1.0 | 0.00 | 0.00 | 0.00 | 90 | 1013.8 |
| 20260903115944 | 75 | 195 | 0.0 | 0.0 | 0.00 | 0.00 | 0.00 | 91 | 1013.5 |
| 20260903115444 | 75 | 197 | 0.0 | 0.0 | 0.00 | 0.00 | 0.00 | 91 | 1013.8 |
| 20260903114939 | 75 | 197 | 0.0 | 0.0 | 0.00 | 0.00 | 0.00 | 91 | 1013.6 |
| 20260903114434 | 75 | 204 | 0.0 | 0.0 | 0.00 | 0.00 | 0.00 | 90 | 1013.6 |
| 20260903113929 | 75 | 220 | 1.0 | 1.0 | 0.00 | 0.00 | 0.00 | 90 | 1013.5 |
| 20260903113426 | 75 | 220 | 3.0 | 3.0 | 0.00 | 0.00 | 0.00 | 90 | 1013.3 |
| 20260903112921 | 75 | 190 | 0.0 | 0.0 | 0.00 | 0.00 | 0.00 | 89 | 1013.3 |
| 20260903112416 | 75 | 196 | 2.0 | 2.0 | 0.00 | 0.00 | 0.00 | 89 | 1013.3 |
| 20260903111915 | 75 | 184 | 2.0 | 2.0 | 0.00 | 0.00 | 0.00 | 89 | 1013.2 |
| 20260903111415 | 75 | 201 | 1.0 | 1.0 | 0.00 | 0.00 | 0.00 | 89 | 1013.1 |
| 20260903110912 | 75 | 190 | 1.0 | 1.0 | 0.00 | 0.00 | 0.00 | 88 | 1013.1 |
| 20260903110407 | 75 | 215 | 1.0 | 1.0 | 0.00 | 0.00 | 0.00 | 89 | 1013.1 |
| 20260903105902 | 75 | 205 | 1.0 | 1.0 | 0.00 | 0.00 | 0.00 | 89 | 1012.9 |
| 20260903105357 | 75 | 221 | 0.0 | 0.0 | 0.00 | 0.00 | 0.00 | 90 | 1013.0 |
| 20260903104856 | 75 | 239 | 0.0 | 0.0 | 0.00 | 0.00 | 0.00 | 89 | 1013.0 |
| 20260903104351 | 75 | 226 | 0.0 | 0.0 | 0.00 | 0.00 | 0.00 | 89 | 1013.1 |
| 20260903103848 | 76 | 204 | 1.0 | 2.0 | 0.00 | 0.00 | 0.00 | 89 | 1013.2 |
| 20260903103344 | 76 | 204 | 1.0 | 1.0 | 0.00 | 0.00 | 0.00 | 89 | 1012.8 |
| 20260903102839 | 76 | 221 | 0.0 | 1.0 | 0.00 | 0.00 | 0.00 | 89 | 1013.0 |
| 20260903102338 | 76 | 229 | 1.0 | 1.0 | 0.00 | 0.00 | 0.00 | 89 | 1012.9 |
| 20260903101833 | 76 | 229 | 0.0 | 0.0 | 0.00 | 0.00 | 0.00 | 88 | 1013.0 |
| 20260903101328 | 76 | 222 | 0.0 | 0.0 | 0.00 | 0.00 | 0.00 | 87 | 1012.9 |
| 20260903100824 | 76 | 206 | 2.0 | 2.0 | 0.00 | 0.00 | 0.00 | 87 | 1012.9 |
| 20260903100323 | 76 | 189 | 1.0 | 1.0 | 0.00 | 0.00 | 0.00 | 87 | 1013.0 |
| 20260903095821 | 76 | 225 | 1.0 | 1.0 | 0.00 | 0.00 | 0.00 | 88 | 1013.1 |
| 20260903095315 | 76 | 205 | 1.0 | 1.0 | 0.00 | 0.00 | 0.00 | 87 | 1013.0 |
| 20260903094810 | 76 | 202 | 1.0 | 1.0 | 0.00 | 0.00 | 0.00 | 87 | 1013.0 |
| 20260903094305 | 76 | 218 | 1.0 | 1.0 | 0.00 | 0.00 | 0.00 | 87 | 1012.9 |
| 20260903093801 | 77 | 236 | 1.0 | 1.0 | 0.00 | 0.00 | 0.00 | 87 | 1013.1 |
| 20260903093256 | 77 | 195 | 0.0 | 1.0 | 0.00 | 0.00 | 0.00 | 87 | 1013.0 |
| 20260903092755 | 77 | 243 | 0.0 | 1.0 | 0.00 | 0.00 | 0.00 | 87 | 1012.7 |
| 20260903092245 | 77 | 214 | 0.0 | 1.0 | 0.00 | 0.00 | 0.00 | 87 | 1012.8 |
| 20260903091744 | 77 | 228 | 2.0 | 3.0 | 0.00 | 0.00 | 0.00 | 87 | 1012.9 |
| 20260903091238 | 77 | 222 | 2.0 | 2.0 | 0.00 | 0.00 | 0.00 | 86 | 1012.8 |
| 20260903090734 | 77 | 221 | 0.0 | 1.0 | 0.00 | 0.00 | 0.00 | 86 | 1012.9 |
| 20260903090233 | 77 | 195 | 3.0 | 3.0 | 0.00 | 0.00 | 0.00 | 86 | 1013.1 |
| 20260903085732 | 77 | 202 | 2.0 | 3.0 | 0.00 | 0.00 | 0.00 | 86 | 1012.8 |
| 20260903085227 | 77 | 200 | 2.0 | 2.0 | 0.00 | 0.00 | 0.00 | 86 | 1012.8 |
| 20260903084724 | 77 | 207 | 0.0 | 1.0 | 0.00 | 0.00 | 0.00 | 86 | 1012.9 |
| 20260903084220 | 77 | 201 | 0.0 | 1.0 | 0.00 | 0.00 | 0.00 | 86 | 1012.9 |
| 20260903083715 | 78 | 210 | 0.0 | 1.0 | 0.00 | 0.00 | 0.00 | 85 | 1012.7 |
| 20260903083209 | 78 | 176 | 0.0 | 1.0 | 0.00 | 0.00 | 0.00 | 85 | 1012.9 |
| 20260903082703 | 78 | 185 | 2.0 | 2.0 | 0.00 | 0.00 | 0.00 | 84 | 1013.0 |
| 20260903082159 | 78 | 187 | 3.0 | 3.0 | 0.00 | 0.00 | 0.00 | 84 | 1012.9 |
| 20260903081659 | 78 | 207 | 1.0 | 1.0 | 0.00 | 0.00 | 0.00 | 84 | 1012.7 |
| 20260903081155 | 78 | 209 | 1.0 | 2.0 | 0.00 | 0.00 | 0.00 | 83 | 1012.8 |
| 20260903080651 | 78 | 232 | 1.0 | 1.0 | 0.00 | 0.00 | 0.00 | 83 | 1012.9 |
| 20260903080149 | 78 | 214 | 1.0 | 1.0 | 0.00 | 0.00 | 0.00 | 83 | 1013.0 |
| 20260903075647 | 79 | 210 | 1.0 | 1.0 | 0.00 | 0.00 | 0.00 | 83 | 1012.8 |
| 20260903075143 | 79 | 196 | 2.0 | 2.0 | 0.00 | 0.00 | 0.00 | 82 | 1012.7 |
| 20260903074642 | 79 | 214 | 1.0 | 1.0 | 0.00 | 0.00 | 0.00 | 82 | 1012.8 |
| 20260903074137 | 79 | 216 | 1.0 | 1.0 | 0.00 | 0.00 | 0.00 | 82 | 1012.6 |
| 20260903073632 | 79 | 204 | 1.0 | 2.0 | 0.00 | 0.00 | 0.00 | 82 | 1013.0 |
| 20260903073128 | 79 | 227 | 2.0 | 2.0 | 0.00 | 0.00 | 0.00 | 81 | 1012.8 |
| 20260903072623 | 79 | 225 | 1.0 | 1.0 | 0.00 | 0.00 | 0.00 | 81 | 1013.0 |
| 20260903072119 | 79 | 219 | 1.0 | 2.0 | 0.00 | 0.00 | 0.00 | 81 | 1013.0 |
| 20260903071616 | 80 | 220 | 3.0 | 5.0 | 0.00 | 0.00 | 0.00 | 81 | 1012.8 |
| 20260903071111 | 80 | 219 | 1.0 | 1.0 | 0.00 | 0.00 | 0.00 | 80 | 1012.8 |
| 20260903070611 | 80 | 217 | 1.0 | 1.0 | 0.00 | 0.00 | 0.00 | 80 | 1013.0 |
| 20260903070107 | 80 | 212 | 2.0 | 2.0 | 0.00 | 0.00 | 0.00 | 80 | 1013.0 |
| 20260903065606 | 80 | 231 | 2.0 | 2.0 | 0.00 | 0.00 | 0.00 | 80 | 1013.0 |
| 20260903065100 | 80 | 228 | 1.0 | 2.0 | 0.00 | 0.00 | 0.00 | 79 | 1013.2 |
| 20260903064555 | 80 | 217 | 1.0 | 2.0 | 0.00 | 0.00 | 0.00 | 80 | 1013.1 |
| 20260903064050 | 80 | 216 | 2.0 | 2.0 | 0.00 | 0.00 | 0.00 | 79 | 1013.2 |
| 20260903063545 | 81 | 194 | 2.0 | 3.0 | 0.00 | 0.00 | 0.00 | 78 | 1013.2 |
| 20260903063041 | 81 | 227 | 2.0 | 2.0 | 0.00 | 0.00 | 0.00 | 78 | 1013.2 |
| 20260903062536 | 81 | 227 | 0.0 | 1.0 | 0.00 | 0.00 | 0.00 | 78 | 1013.2 |
| 20260903062031 | 81 | 195 | 1.0 | 2.0 | 0.00 | 0.00 | 0.00 | 77 | 1012.8 |
| 20260903061527 | 81 | 223 | 3.0 | 3.0 | 0.00 | 0.00 | 0.00 | 77 | 1013.0 |
| 20260903061026 | 81 | 194 | 2.0 | 3.0 | 0.00 | 0.00 | 0.00 | 77 | 1013.3 |
| 20260903060526 | 81 | 215 | 2.0 | 2.0 | 0.00 | 0.00 | 0.00 | 77 | 1013.1 |
| 20260903060021 | 81 | 229 | 3.0 | 3.0 | 0.00 | 0.00 | 0.00 | 77 | 1013.1 |
| 20260903055518 | 81 | 224 | 1.0 | 2.0 | 0.00 | 0.00 | 0.00 | 77 | 1013.0 |
| 20260903055018 | 81 | 213 | 1.0 | 1.0 | 0.00 | 0.00 | 0.00 | 77 | 1013.1 |
| 20260903054513 | 81 | 219 | 2.0 | 2.0 | 0.00 | 0.00 | 0.00 | 77 | 1013.1 |
| 20260903054009 | 81 | 220 | 1.0 | 1.0 | 0.00 | 0.00 | 0.00 | 78 | 1013.1 |
| 20260903053508 | 81 | 241 | 1.0 | 1.0 | 0.00 | 0.00 | 0.00 | 77 | 1013.0 |
| 20260903053005 | 81 | 212 | 1.0 | 1.0 | 0.00 | 0.00 | 0.00 | 77 | 1013.3 |
| 20260903052501 | 81 | 234 | 0.0 | 0.0 | 0.00 | 0.00 | 0.00 | 77 | 1013.1 |
| 20260903051956 | 81 | 214 | 1.0 | 1.0 | 0.00 | 0.00 | 0.00 | 76 | 1013.1 |
| 20260903051451 | 81 | 217 | 1.0 | 2.0 | 0.00 | 0.00 | 0.00 | 77 | 1013.1 |
| 20260903050947 | 81 | 229 | 0.0 | 1.0 | 0.00 | 0.00 | 0.00 | 77 | 1013.3 |
| 20260903050445 | 81 | 200 | 1.0 | 2.0 | 0.00 | 0.00 | 0.00 | 76 | 1013.3 |
| 20260903045940 | 82 | 218 | 1.0 | 1.0 | 0.00 | 0.00 | 0.00 | 76 | 1013.1 |
| 20260903045436 | 81 | 221 | 1.0 | 1.0 | 0.00 | 0.00 | 0.00 | 77 | 1013.4 |
| 20260903044932 | 81 | 220 | 1.0 | 2.0 | 0.00 | 0.00 | 0.00 | 77 | 1013.2 |
| 20260903044432 | 82 | 212 | 1.0 | 1.0 | 0.00 | 0.00 | 0.00 | 77 | 1013.2 |
| 20260903043929 | 82 | 218 | 1.0 | 1.0 | 0.00 | 0.00 | 0.00 | 76 | 1013.1 |
| 20260903043424 | 82 | 211 | 0.0 | 1.0 | 0.00 | 0.00 | 0.00 | 76 | 1013.2 |
| 20260903042923 | 82 | 202 | 1.0 | 2.0 | 0.00 | 0.00 | 0.00 | 76 | 1013.1 |
| 20260903042418 | 82 | 206 | 1.0 | 2.0 | 0.00 | 0.00 | 0.00 | 76 | 1013.0 |
| 20260903041914 | 82 | 198 | 1.0 | 1.0 | 0.00 | 0.00 | 0.00 | 76 | 1013.1 |
| 20260903041410 | 82 | 210 | 0.0 | 1.0 | 0.00 | 0.00 | 0.00 | 77 | 1013.2 |
| 20260903040906 | 82 | 194 | 0.0 | 1.0 | 0.00 | 0.00 | 0.00 | 77 | 1012.9 |